Volk, WI

5:37 AM CDT on June 23, 2017 (GMT -0500)
Volk

Weather History for KVOK - February, 2013

Change the Weather History Date:

Thursday, February 28, 2013

  Actual Average Record
Temperature  
Mean Temperature 29 °F -  
Max Temperature 32 °F 30 °F 51 °F (2016)
Min Temperature 26 °F 19 °F -19 °F (2014)
Degree Days  
Heating Degree Days 36    
Moisture  
Dew Point 23 °F    
Average Humidity 75    
Maximum Humidity 86    
Minimum Humidity 59    
Precipitation  
Precipitation 0.00 in - - ()
Snow  
Snow 0.00 in - - ()
Snow Depth 5.00 in    
Sea Level Pressure  
Sea Level Pressure 30.01 in    
Wind  
Wind Speed 11 mph (NNW)    
Max Wind Speed 16 mph    
Max Gust Speed 22 mph    
Visibility 10 miles    
Events Snow    
Averages and records for this station are not official NWS values.
T = Trace of Precipitation, MM = Missing Value Source: NWS Daily Summary

Daily Weather History Graph

Daily Weather History Graph

Search for Another Location

Airport or City:

Trip Planner

Search our weather history database for the weather conditions in past years. The results will help you decide how hot, cold, wet, or windy it might be!

Date:

Astronomy

Feb. 28, 2013 Rise Set
Actual Time 6:39 AM CST 5:48 PM CST
Civil Twilight 6:10 AM CST 6:17 PM CST
Nautical Twilight 5:36 AM CST 6:50 PM CST
Astronomical Twilight 5:03 AM CST 7:24 PM CST
Moon 9:25 PM CST (2/28) 7:40 AM CST (2/28)
Length of Visible Light 12h 07m
Length of Day
11h 09m
Waning Gibbous, 90% of the Moon is Illuminated
Feb 28
Waning Gibbous
Mar 4
Last Quarter
Mar 11
New
Mar 19
First Quarter
Mar 27
Full

Hourly Weather History & Observations

Time (CST) Temp. Windchill Dew Point Humidity Pressure Visibility Wind Dir Wind Speed Gust Speed Precip Events Conditions
12:05 AM 32.0 °F 22.1 °F 26.6 °F 80% 29.89 in 10.0 mi NNW 13.8 mph - N/A   Mostly Cloudy
12:16 AM 32.0 °F 23.6 °F 26.6 °F 80% 29.89 in 10.0 mi NNW 10.4 mph - N/A   Overcast
12:55 AM 31.3 °F 22.1 °F 26.2 °F 82% 29.90 in 10.0 mi NNW 11.5 mph - 0.00 in   Mostly Cloudy
12:58 AM 32.0 °F 23.6 °F 26.6 °F 80% 29.90 in 10.0 mi NNW 10.4 mph - N/A   Mostly Cloudy
1:15 AM 32.0 °F 23.6 °F 26.6 °F 80% 29.90 in 10.0 mi NNW 10.4 mph - N/A   Mostly Cloudy
1:17 AM 32.0 °F 23.6 °F 26.6 °F 80% 29.90 in 10.0 mi NNW 10.4 mph - N/A   Mostly Cloudy
1:28 AM 32.0 °F 22.5 °F 26.6 °F 80% 29.90 in 10.0 mi NNW 12.7 mph - N/A   Scattered Clouds
1:51 AM 30.2 °F 20.8 °F 26.6 °F 86% 29.90 in 10.0 mi NNW 11.5 mph - N/A   Mostly Cloudy
1:55 AM 30.9 °F 21.2 °F 26.1 °F 82% 29.90 in 10.0 mi NNW 12.7 mph - 0.00 in   Mostly Cloudy
2:09 AM 30.2 °F 21.3 °F 26.6 °F 86% 29.90 in 10.0 mi NNW 10.4 mph - N/A   Overcast
2:26 AM 30.2 °F 21.3 °F 26.6 °F 86% 29.90 in 10.0 mi NNW 10.4 mph - N/A   Overcast
2:30 AM 30.2 °F 21.3 °F 26.6 °F 86% 29.91 in 10.0 mi NNW 10.4 mph - N/A   Overcast
2:32 AM 30.2 °F 20.2 °F 26.6 °F 86% 29.90 in 10.0 mi NNW 12.7 mph - N/A   Overcast
2:33 AM 30.2 °F 21.3 °F 26.6 °F 86% 29.90 in 10.0 mi NNW 10.4 mph - N/A   Overcast
2:55 AM 30.0 °F 21.1 °F 26.2 °F 86% 29.91 in 10.0 mi NNW 10.4 mph - 0.00 in Snow Light Snow
3:23 AM 30.2 °F 20.8 °F 26.6 °F 86% 29.91 in 10.0 mi NNW 11.5 mph - N/A   Overcast
3:48 AM 30.2 °F 20.8 °F 26.6 °F 86% 29.93 in 10.0 mi NNW 11.5 mph - N/A   Overcast
3:55 AM 29.7 °F 20.7 °F 26.1 °F 86% 29.93 in 10.0 mi NNW 10.4 mph - 0.00 in   Mostly Cloudy
4:04 AM 30.2 °F 21.3 °F 24.8 °F 80% 29.93 in 10.0 mi NNW 10.4 mph - N/A   Mostly Cloudy
4:55 AM 30.4 °F 21.5 °F 25.2 °F 81% 29.95 in 10.0 mi NNW 10.4 mph - 0.00 in   Overcast
5:26 AM 30.2 °F 20.8 °F 24.8 °F 80% 29.96 in 10.0 mi NNW 11.5 mph - N/A   Overcast
5:55 AM 30.6 °F 21.2 °F 25.2 °F 80% 29.97 in 10.0 mi NW 11.5 mph - N/A   Overcast
6:09 AM 30.2 °F 21.3 °F 24.8 °F 80% 29.98 in 10.0 mi NW 10.4 mph - N/A   Overcast
6:55 AM 30.2 °F 22.6 °F 24.8 °F 80% 29.99 in 10.0 mi NW 8.1 mph - N/A   Overcast
7:55 AM 30.2 °F 20.2 °F 24.8 °F 80% 30.01 in 10.0 mi NNW 12.7 mph - N/A   Overcast
8:55 AM 30.2 °F 21.3 °F 24.8 °F 80% 30.03 in 10.0 mi NNW 10.4 mph - N/A   Overcast
9:55 AM 32.0 °F 23.0 °F 24.8 °F 75% 30.04 in 10.0 mi NNW 11.5 mph - N/A   Overcast
10:55 AM 32.0 °F 21.2 °F 23.0 °F 69% 30.06 in 10.0 mi North 16.1 mph 21.9 mph N/A   Overcast
11:55 AM 32.0 °F 22.5 °F 23.0 °F 69% 30.07 in 10.0 mi North 12.7 mph - N/A   Overcast
12:55 PM 32.0 °F 22.5 °F 23.0 °F 69% 30.07 in 10.0 mi North 12.7 mph - N/A Snow Light Snow
1:55 PM 30.2 °F 20.8 °F 23.0 °F 75% 30.07 in 10.0 mi North 11.5 mph - N/A   Overcast
2:55 PM 30.2 °F 22.6 °F 21.2 °F 69% 30.08 in 10.0 mi North 8.1 mph - N/A   Overcast
3:55 PM 32.0 °F 23.6 °F 19.4 °F 60% 30.09 in 10.0 mi North 10.4 mph - N/A   Overcast
4:55 PM 30.2 °F 20.8 °F 19.4 °F 64% 30.10 in 10.0 mi NNE 11.5 mph - N/A   Overcast
5:55 PM 30.2 °F 21.9 °F 17.6 °F 60% 30.12 in 10.0 mi NNE 9.2 mph - N/A   Overcast
6:55 PM 29.5 °F 21.8 °F 18.7 °F 64% 30.13 in 10.0 mi North 8.1 mph - N/A   Overcast
7:16 PM 28.4 °F 19.7 °F 17.6 °F 64% 30.14 in 10.0 mi North 9.2 mph - N/A   Overcast
7:18 PM 28.4 °F 20.4 °F 17.6 °F 64% 30.14 in 10.0 mi North 8.1 mph - N/A   Overcast
7:19 PM 28.4 °F 21.2 °F 17.6 °F 64% 30.14 in 10.0 mi North 6.9 mph - N/A   Overcast
7:22 PM 28.4 °F 21.2 °F 17.6 °F 64% 30.14 in 10.0 mi North 6.9 mph - N/A   Overcast
7:55 PM 28.4 °F 19.7 °F 17.6 °F 64% 30.15 in 10.0 mi North 9.2 mph - N/A   Overcast
8:55 PM 28.4 °F 18.5 °F 15.8 °F 59% 30.16 in 10.0 mi NNE 11.5 mph - N/A   Overcast
9:55 PM 28.4 °F 21.2 °F 15.8 °F 59% 30.17 in 10.0 mi NNE 6.9 mph - N/A   Overcast
10:55 PM 26.6 °F 16.2 °F 15.8 °F 64% 30.17 in 10.0 mi NNE 11.5 mph - N/A   Overcast
11:55 PM 26.6 °F 16.8 °F 15.8 °F 64% 30.18 in 10.0 mi NNE 10.4 mph - N/A   Overcast